Terug naar catalogus

ELECTRON KICK STAGE R/B

ActiefPO
NORAD 67559·ROCKET BODY·🇺🇸 United States

Gelanceerd Jan 22, 2026 vanaf Rocket Lab Launch Complex 1

Loading…

Volgende Passages (komende 24 uur)

TLE

VersSource: Space-Track

Epoch: Sep 13, 2026, 22:23 UTC

1 67559U 26015D   26256.93299865  .00043594 -34374-6  55976-3 0  9996
2 67559  89.0341 255.1221 0416452 210.9999 146.6052 14.97016271 34726

Volg ELECTRON KICK STAGE R/B in realtime met AllMySat

Download on the App Store